Location: Bakhuizen
(52.8696°N, 5.4575°E)
Time: 04:51:21
(UTC+00:00)

H-2A R/B - Pass Details

Date: 11 May 2021
Orbit: 573 x 598 km, 98.2° (Epoch: 14 June)

Event Time Altitude Azimuth Distance (km) Brightness Sun altitude
Rises 21:09:12 0° 19° (NNE) 2,852 7.5 -12.4°
Reaches altitude 10° 21:11:29 10° 27° (NNE) 1,941 6.5 -12.6°
Maximum altitude 21:15:29 42° 99° (E) 858 4.0 -12.9°
Enters shadow 21:17:58 20° 160° (SSE) 1,378 4.7 -13.1°
